Weather History for KBKL - September, 2012

Change the Weather History Date:

Monday, September 3, 2012

  Actual Average Record
Temperature  
Mean Temperature 74 °F -  
Max Temperature 81 °F 75 °F 91 °F (2011)
Min Temperature 68 °F 62 °F 57 °F (1998)
Cooling Degree Days 9    
Growing Degree Days 24 (Base 50)    
Moisture  
Dew Point 69 °F    
Average Humidity 84    
Maximum Humidity 94    
Minimum Humidity 71    
Precipitation  
Precipitation 0.01 in - - ()
Sea Level Pressure  
Sea Level Pressure 29.92 in    
Wind  
Wind Speed 4 mph (East)    
Max Wind Speed 12 mph    
Max Gust Speed 22 mph    
Visibility 8 miles    
Events Rain    
Averages and records for this station are not official NWS values.
T = Trace of Precipitation, MM = Missing Value Source: NWS Daily Summary

Daily Weather History Graph

Daily Weather History Graph

Search for Another Location

Airport or City:

Trip Planner

Search our weather history database for the weather conditions in past years. The results will help you decide how hot, cold, wet, or windy it might be!

Date:

Astronomy

Sep. 03, 2012 Rise Set
Actual Time 6:55 AM EDT 7:55 PM EDT
Civil Twilight 6:27 AM EDT 8:23 PM EDT
Nautical Twilight 5:53 AM EDT 8:57 PM EDT
Astronomical Twilight 5:17 AM EDT 9:32 PM EDT
Moon 9:10 PM EDT (9/3) 10:05 AM EDT (9/3)
Length of Visible Light 13h 56m
Length of Day
13h 00m
Waning Gibbous, 90% of the Moon is Illuminated
Sep 3
Waning Gibbous
Sep 8
Last Quarter
Sep 15
New
Sep 22
First Quarter
Sep 29
Full

Hourly Weather History & Observations

Time (EDT) Temp. Heat Index Dew Point Humidity Pressure Visibility Wind Dir Wind Speed Gust Speed Precip Events Conditions
12:53 AM 71.1 °F - 64.0 °F 78% 29.94 in 10.0 mi Calm Calm - N/A   Clear
1:53 AM 71.1 °F - 64.0 °F 78% 29.94 in 10.0 mi ENE 3.5 mph - N/A   Clear
2:53 AM 71.1 °F - 64.9 °F 81% 29.93 in 10.0 mi Calm Calm - N/A   Clear
3:53 AM 68.0 °F - 66.0 °F 93% 29.93 in 10.0 mi Calm Calm - N/A   Clear
4:53 AM 71.1 °F - 66.0 °F 84% 29.93 in 10.0 mi Calm Calm - N/A   Clear
5:53 AM 70.0 °F - 66.0 °F 87% 29.92 in 8.0 mi Calm Calm - N/A   Clear
6:53 AM 70.0 °F - 66.9 °F 90% 29.92 in 8.0 mi SE 4.6 mph - 0.01 in   Clear
7:53 AM 72.0 °F - 66.9 °F 84% 29.93 in 8.0 mi SSE 5.8 mph - N/A   Clear
8:53 AM 75.0 °F - 68.0 °F 79% 29.94 in 10.0 mi SSE 5.8 mph - N/A   Clear
9:53 AM 77.0 °F - 69.1 °F 76% 29.94 in 10.0 mi South 5.8 mph - N/A   Clear
10:53 AM 80.1 °F 83.2 °F 70.0 °F 71% 29.95 in 10.0 mi Calm Calm - N/A   Clear
11:53 AM 79.0 °F - 72.0 °F 79% 29.94 in 10.0 mi NNE 6.9 mph - N/A   Clear
12:53 PM 79.0 °F - 72.0 °F 79% 29.94 in 9.0 mi NE 8.1 mph - N/A   Scattered Clouds
1:53 PM 79.0 °F - 73.0 °F 82% 29.92 in 8.0 mi NNE 11.5 mph - N/A   Clear
2:53 PM 77.0 °F - 73.0 °F 88% 29.91 in 5.0 mi NE 11.5 mph - N/A   Mostly Cloudy
3:53 PM 80.1 °F 84.5 °F 73.9 °F 81% 29.90 in 6.0 mi NE 9.2 mph - N/A   Haze
4:53 PM 78.1 °F - 73.0 °F 84% 29.89 in 6.0 mi NE 10.4 mph - N/A   Haze
5:53 PM 78.1 °F - 73.0 °F 84% 29.87 in 6.0 mi NE 11.5 mph - N/A   Haze
6:00 PM 78.8 °F - 73.4 °F 83% 29.88 in 4.0 mi ENE 9.2 mph - N/A   Haze
6:53 PM 75.9 °F - 72.0 °F 87% 29.87 in 6.0 mi East 8.1 mph - 0.00 in Rain Light Rain
7:53 PM 73.9 °F - 69.1 °F 85% 29.90 in 10.0 mi SSE 10.4 mph - 0.00 in   Mostly Cloudy
8:18 PM 73.4 °F - 69.8 °F 88% 29.92 in 2.0 mi SW 11.5 mph 21.9 mph N/A Rain Rain
8:27 PM 71.6 °F - 69.8 °F 94% 29.92 in 10.0 mi WSW 8.1 mph - N/A Rain Light Rain
8:53 PM 72.0 °F - 68.0 °F 87% 29.91 in 9.0 mi NNE 5.8 mph - N/A Rain Light Rain
9:53 PM 73.0 °F - 70.0 °F 90% 29.92 in 10.0 mi East 5.8 mph - N/A   Partly Cloudy
10:53 PM 73.9 °F - 70.0 °F 87% 29.91 in 10.0 mi SSE 3.5 mph - N/A   Partly Cloudy
11:53 PM 73.9 °F - 71.1 °F 91% 29.91 in 10.0 mi SE 6.9 mph - N/A   Scattered Clouds